This demonstration page uses our WeatherBlox Daily Observations layout. Learn more.

Left ArrowRight Arrow

Hourly Observations for November 5, 2020

Temp ( °F °C ) Dew Point ( °F °C ) Humidity (%) Winds ( mph kmh ) Pressure ( in mb ) Visibility ( mi km ) Precip ( " mm )
12:52 am 00:52 Partly Cloudy 50 10 43 6.1 77 77 SSE 7 11 30.06 1018 10 16 0.00 0.00
1:52 am 01:52 Partly Cloudy 49 9.4 42 5.6 77 77 SSE 7 11 30.06 1018 10 16 0.00 0.00
2:52 am 02:52 Mostly Clear 47 8.3 41 5 80 80 Calm 30.07 1018 10 16 0.00 0.00
3:52 am 03:52 Clear 43 6.1 41 5 93 93 Calm 30.09 1019 10 16 0.00 0.00
4:52 am 04:52 Mostly Clear 41 5 40 4.4 96 96 Calm 30.10 1019 10 16 0.00 0.00
5:52 am 05:52 Partly Cloudy 36 2.2 35 1.7 97 97 NNW 3 6 30.12 1020 10 16 0.00 0.00
6:52 am 06:52 Mostly Clear 37 2.8 36 2.2 96 96 NNW 6 9 30.14 1021 8 13 0.00 0.00
7:52 am 07:52 Mostly Sunny 42 5.6 40 4.4 92 92 N 7 11 30.15 1021 8 13 0.00 0.00
8:52 am 08:52 Sunny 46 7.8 42 5.6 86 86 N 8 13 30.16 1022 8 13 0.00 0.00
9:52 am 09:52 Sunny 52 11.1 43 6.1 72 72 N 9 15 30.18 1022 8 13 0.00 0.00
10:52 am 10:52 Sunny 60 15.6 44 6.7 56 56 N 8 13 30.17 1022 10 16 0.00 0.00
11:52 am 11:52 Sunny 66 18.9 43 6.1 43 43 N 8 13 30.16 1022 10 16 0.00 0.00
12:52 pm 12:52 Sunny 71 21.7 43 6.1 36 36 N 5 7 30.14 1021 10 16 0.00 0.00
1:52 pm 13:52 Mostly Sunny 75 23.9 42 5.6 31 31 Calm 30.12 1020 10 16 0.00 0.00
2:52 pm 14:52 Mostly Sunny 76 24.4 41 5 29 29 W 3 6 30.10 1019 8 13 0.00 0.00
3:52 pm 15:52 Mostly Sunny 76 24.4 42 5.6 30 30 W 3 6 30.11 1020 8 13 0.00 0.00
4:52 pm 16:52 Partly Cloudy 69 20.6 42 5.6 38 38 S 6 9 30.11 1020 9 14 0.00 0.00
5:52 pm 17:52 Mostly Cloudy 60 15.6 42 5.6 52 52 ESE 5 7 30.13 1020 10 16 0.00 0.00
6:52 pm 18:52 Mostly Cloudy 57 13.9 42 5.6 58 58 SSE 5 7 30.14 1021 10 16 0.00 0.00
7:52 pm 19:52 Mostly Cloudy 54 12.2 43 6.1 67 67 SE 5 7 30.13 1020 10 16 0.00 0.00
8:52 pm 20:52 Partly Cloudy 53 11.7 43 6.1 69 69 Calm 30.13 1020 10 16 0.00 0.00
9:52 pm 21:52 Mostly Cloudy 50 10 42 5.6 74 74 Calm 30.12 1020 10 16 0.00 0.00
10:52 pm 22:52 Mostly Cloudy 47 8.3 42 5.6 83 83 S 6 9 30.11 1020 10 16 0.00 0.00
11:52 pm 23:52 Mostly Cloudy 49 9.4 43 6.1 80 80 SSE 7 11 30.09 1019 10 16 0.00 0.00

Powered by AerisWeather